STARLINK-32902, 62898

Orbit data source: Space-Track

STARLINK-32902, 62898 is a payload satellite owned by SpaceX/Seattle (US) in LEO that was launched on Tue, 04 Feb 2025 UTC via an FALCON 9 launch vehicle from the Air Force Eastern Test Range (AFETR). Payload-class satellites include a variety of spacecraft equipped with specific instruments for various scientific and technological missions. These include communications satellites like Starlink; space stations such as the ISS; scientific satellites like the Hubble; Earth observation satellites from companies like Planet Labs, Umbra, and HawkEye 360; GPS; miniature CubeSats for education and research; and military/defense satellites.

Loading next visibility...
Identifier
62898, 2025-024V
Orbit
LEO
Country
Flag of USUS
Related business
Manufacturer
SpaceX/Seattle
Mission
Operational Commercial Communications
Bus & Motor
STARLINK V2M, Unknown motor
Mass
730 kg wet, ~700 kg dry
Launch date (UTC)
2025-02-04 (8 months ago)
Launch vehicle
FALCON 9
Launch site
Air Force Eastern Test Range (AFETR)
Object type
Payload
Rocket body
Debris
Shape & HBR
Box + 2 Pan, 17.7 m
Radar Cross Section
33.884 m², Large (>1 m²)

Expand to show TLE details & history
Last TLE update: 14 hours ago

TLE from 14 hours ago
0 STARLINK-32902
1 62898U 25024V   25290.64450268  .00035324  00000-0  12859-2 0  9993
2 62898  43.0020  52.8015 0001463 272.9006  87.1678 15.27607908 40393
Epoch: 2025-10-17T15:28Z
TLE epoch observation values (Epoch: 2025-10-17T15:28:05.031Z)
Latitude
-0.00004°
Longitude
154.39359°
Altitude
482.692 km
Speed
7.626 km/s
True Right ascension
03h 31m 12s
True Declination
0° 00' 00"
Sunlit
Object was in full shadow at epoch
Visualization orbit readout
Latitude
Unknown
Longitude
Unknown
Altitude
Unknown
Speed
Unknown
Apparent Right ascension
Unknown
Apparent Declination
Unknown
Sunlit
N/A
Visualization observer readout
Local Sidereal Time
00:21:28
Azimuth
Unknown
Elevation
Unknown
Doppler factor
Unknown
Orbital elements
Apogee altitude
485.914 km
Perigee altitude
483.906 km
Semi-major axis
6,863.047 km
Eccentricity
0.00015
Inclination
43.002°
RAAN
52.8015°
Arg. of periapsis
272.9006°
True anomaly
87.18454°
Mean anomaly
87.1678°
Eccentric anomaly
87.17617°
Mean motion
3.8174 °/min
Orbital period
94.31 mins
BSTAR
0.0012859
Loading maneuver chart data...
Computing Atmospheric mass density...
Loading historical data...
Loading historical data...
Loading historical data...
Loading historical data...
Loading historical data...
Loading historical data...
Loading historical data...

Documentation

Showing up to 5 results
|